Time,TemperatureF,DewpointF,PressureIn,WindDirection,WindDirectionDegrees,WindSpeedMPH,WindSpeedGustMPH,Humidity,HourlyPrecipIn,Conditions,Clouds,dailyrainin,SoftwareType,DateUTC
2013-01-24 00:00:00,50.4,46.4,30.30,North,355,0.0,0.0,86,0.00,,,0.00,WeatherTracker,2013-01-24 05:00:00,
2013-01-24 00:02:00,50.4,46.4,30.30,North,355,0.0,0.0,86,0.00,,,0.00,WeatherTracker,2013-01-24 05:02:00,
2013-01-24 00:07:00,50.5,46.2,30.30,North,360,0.0,0.0,85,0.00,,,0.00,WeatherTracker,2013-01-24 05:07:00,
2013-01-24 00:12:00,50.6,45.6,30.30,North,360,0.0,0.0,83,0.00,,,0.00,WeatherTracker,2013-01-24 05:12:00,
2013-01-24 00:17:00,50.6,45.6,30.30,North,360,1.0,0.0,83,0.00,,,0.00,WeatherTracker,2013-01-24 05:17:00,
2013-01-24 00:22:00,50.6,45.3,30.30,North,355,0.0,0.0,82,0.00,,,0.00,WeatherTracker,2013-01-24 05:22:00,
2013-01-24 00:27:00,50.6,45.0,30.30,NNW,336,2.0,0.0,81,0.00,,,0.00,WeatherTracker,2013-01-24 05:27:00,
2013-01-24 00:32:00,50.7,44.8,30.30,NNW,347,1.0,0.0,80,0.00,,,0.00,WeatherTracker,2013-01-24 05:32:00,
2013-01-24 00:37:00,50.8,44.9,30.30,North,355,0.0,0.0,80,0.00,,,0.00,WeatherTracker,2013-01-24 05:37:00,
2013-01-24 00:42:00,50.8,44.9,30.30,North,355,0.0,0.0,80,0.00,,,0.00,WeatherTracker,2013-01-24 05:42:00,
2013-01-24 00:47:00,50.7,44.4,30.29,North,355,0.0,0.0,79,0.00,,,0.00,WeatherTracker,2013-01-24 05:47:00,
2013-01-24 00:52:00,50.6,44.3,30.30,North,355,0.0,0.0,79,0.00,,,0.00,WeatherTracker,2013-01-24 05:52:00,
2013-01-24 00:57:00,50.5,44.2,30.30,North,360,1.0,0.0,79,0.00,,,0.00,WeatherTracker,2013-01-24 05:57:00,
2013-01-24 01:02:00,50.5,43.9,30.30,NNE,14,0.0,0.0,78,0.00,,,0.00,WeatherTracker,2013-01-24 06:02:00,
2013-01-24 01:07:00,50.4,43.5,30.30,NNE,14,0.0,0.0,77,0.00,,,0.00,WeatherTracker,2013-01-24 06:07:00,
2013-01-24 01:12:00,50.3,42.7,30.30,NNE,15,0.0,0.0,75,0.00,,,0.00,WeatherTracker,2013-01-24 06:12:00,
2013-01-24 01:17:00,50.2,42.2,30.30,NNE,15,0.0,0.0,74,0.00,,,0.00,WeatherTracker,2013-01-24 06:17:00,
2013-01-24 01:22:00,50.0,42.4,30.30,NNE,28,0.0,0.0,75,0.00,,,0.00,WeatherTracker,2013-01-24 06:22:00,
2013-01-24 01:28:00,49.9,42.3,30.30,NNE,28,0.0,0.0,75,0.00,,,0.00,WeatherTracker,2013-01-24 06:28:00,
2013-01-24 01:33:00,49.8,42.2,30.29,NNE,28,0.0,0.0,75,0.00,,,0.00,WeatherTracker,2013-01-24 06:33:00,
2013-01-24 01:38:00,49.6,42.0,30.29,NNE,28,0.0,0.0,75,0.00,,,0.00,WeatherTracker,2013-01-24 06:38:00,
2013-01-24 01:43:00,49.5,42.3,30.28,NNE,28,0.0,0.0,76,0.00,,,0.00,WeatherTracker,2013-01-24 06:43:00,
2013-01-24 01:48:00,49.2,42.0,30.28,NNE,28,0.0,0.0,76,0.00,,,0.00,WeatherTracker,2013-01-24 06:48:00,
2013-01-24 01:53:00,48.9,42.0,30.27,NNE,28,0.0,0.0,77,0.00,,,0.00,WeatherTracker,2013-01-24 06:53:00,
2013-01-24 01:58:00,48.7,41.8,30.27,NNE,28,0.0,0.0,77,0.00,,,0.00,WeatherTracker,2013-01-24 06:58:00,
2013-01-24 02:03:00,48.5,42.0,30.27,NNE,29,1.0,0.0,78,0.00,,,0.00,WeatherTracker,2013-01-24 07:03:00,
2013-01-24 02:08:00,48.2,42.0,30.27,NNE,29,0.0,0.0,79,0.00,,,0.00,WeatherTracker,2013-01-24 07:08:00,
2013-01-24 02:13:00,48.0,42.1,30.27,NNE,29,0.0,0.0,80,0.00,,,0.00,WeatherTracker,2013-01-24 07:13:00,
2013-01-24 02:18:00,47.9,42.0,30.26,NNE,29,0.0,0.0,80,0.00,,,0.00,WeatherTracker,2013-01-24 07:18:00,
2013-01-24 02:23:00,47.7,41.8,30.26,NNE,29,0.0,0.0,80,0.00,,,0.00,WeatherTracker,2013-01-24 07:23:00,
2013-01-24 02:28:00,47.6,42.1,30.26,NNE,29,0.0,0.0,81,0.00,,,0.00,WeatherTracker,2013-01-24 07:28:00,
2013-01-24 02:33:00,47.4,41.9,30.26,NNE,29,0.0,0.0,81,0.00,,,0.00,WeatherTracker,2013-01-24 07:33:00,
2013-01-24 02:38:00,47.3,42.4,30.26,NNE,29,0.0,0.0,83,0.00,,,0.00,WeatherTracker,2013-01-24 07:38:00,
2013-01-24 02:43:00,47.0,41.8,30.26,NNE,29,0.0,0.0,82,0.00,,,0.00,WeatherTracker,2013-01-24 07:43:00,
2013-01-24 02:48:00,46.9,42.0,30.26,NNE,29,0.0,0.0,83,0.00,,,0.00,WeatherTracker,2013-01-24 07:48:00,
2013-01-24 02:53:00,46.7,42.1,30.26,NNE,29,0.0,0.0,84,0.00,,,0.00,WeatherTracker,2013-01-24 07:53:00,
2013-01-24 02:58:00,46.6,42.0,30.26,NNE,29,0.0,0.0,84,0.00,,,0.00,WeatherTracker,2013-01-24 07:58:00,
2013-01-24 03:03:00,46.6,42.0,30.26,NNE,29,0.0,0.0,84,0.00,,,0.00,WeatherTracker,2013-01-24 08:03:00,
2013-01-24 03:08:00,46.5,41.9,30.26,NNE,29,0.0,0.0,84,0.00,,,0.00,WeatherTracker,2013-01-24 08:08:00,
2013-01-24 03:13:00,46.5,41.9,30.26,NNE,29,0.0,0.0,84,0.00,,,0.00,WeatherTracker,2013-01-24 08:13:00,
2013-01-24 03:18:00,46.4,42.1,30.26,NNE,29,0.0,0.0,85,0.00,,,0.00,WeatherTracker,2013-01-24 08:18:00,
2013-01-24 03:23:00,46.2,41.9,30.26,NNE,29,0.0,0.0,85,0.00,,,0.00,WeatherTracker,2013-01-24 08:23:00,
2013-01-24 03:28:00,46.1,41.8,30.26,NNE,29,0.0,0.0,85,0.00,,,0.00,WeatherTracker,2013-01-24 08:28:00,
2013-01-24 03:33:00,46.0,42.1,30.26,NNE,29,0.0,0.0,86,0.00,,,0.00,WeatherTracker,2013-01-24 08:33:00,
2013-01-24 03:38:00,45.9,41.6,30.26,NNE,29,0.0,0.0,85,0.00,,,0.00,WeatherTracker,2013-01-24 08:38:00,
2013-01-24 03:43:00,45.8,42.2,30.25,NNE,29,0.0,0.0,87,0.00,,,0.00,WeatherTracker,2013-01-24 08:43:00,
2013-01-24 03:48:00,45.7,41.8,30.25,NNE,29,0.0,0.0,86,0.00,,,0.00,WeatherTracker,2013-01-24 08:48:00,
2013-01-24 03:53:00,45.6,42.0,30.25,East,98,0.0,0.0,87,0.00,,,0.00,WeatherTracker,2013-01-24 08:53:00,
2013-01-24 03:59:00,45.7,42.6,30.25,East,98,0.0,0.0,89,0.00,,,0.00,WeatherTracker,2013-01-24 08:59:00,
2013-01-24 04:04:00,45.8,42.5,30.25,East,98,0.0,0.0,88,0.00,,,0.00,WeatherTracker,2013-01-24 09:04:00,
2013-01-24 04:09:00,45.8,42.5,30.25,East,98,0.0,0.0,88,0.00,,,0.00,WeatherTracker,2013-01-24 09:09:00,
2013-01-24 04:14:00,45.8,42.5,30.25,East,98,0.0,0.0,88,0.00,,,0.00,WeatherTracker,2013-01-24 09:14:00,
2013-01-24 04:19:00,45.8,42.2,30.26,East,98,0.0,0.0,87,0.00,,,0.00,WeatherTracker,2013-01-24 09:19:00,
2013-01-24 04:24:00,45.8,42.5,30.26,East,98,0.0,0.0,88,0.00,,,0.00,WeatherTracker,2013-01-24 09:24:00,
2013-01-24 04:29:00,45.7,42.4,30.26,East,98,0.0,0.0,88,0.00,,,0.00,WeatherTracker,2013-01-24 09:29:00,
2013-01-24 04:34:00,45.7,42.4,30.26,East,98,0.0,0.0,88,0.00,,,0.00,WeatherTracker,2013-01-24 09:34:00,
2013-01-24 04:39:00,45.6,42.3,30.26,East,98,0.0,0.0,88,0.00,,,0.00,WeatherTracker,2013-01-24 09:39:00,
2013-01-24 04:44:00,45.6,42.3,30.26,East,98,0.0,0.0,88,0.00,,,0.00,WeatherTracker,2013-01-24 09:44:00,
2013-01-24 04:49:00,45.5,42.2,30.26,East,98,0.0,0.0,88,0.00,,,0.00,WeatherTracker,2013-01-24 09:49:00,
2013-01-24 04:54:00,45.4,41.8,30.26,East,98,0.0,0.0,87,0.00,,,0.00,WeatherTracker,2013-01-24 09:54:00,
2013-01-24 04:59:00,45.2,41.9,30.26,East,98,0.0,0.0,88,0.00,,,0.00,WeatherTracker,2013-01-24 09:59:00,
2013-01-24 05:04:00,45.1,41.5,30.26,East,98,0.0,0.0,87,0.00,,,0.00,WeatherTracker,2013-01-24 10:04:00,
2013-01-24 05:09:00,44.9,41.6,30.27,East,98,0.0,0.0,88,0.00,,,0.00,WeatherTracker,2013-01-24 10:09:00,
2013-01-24 05:14:00,44.8,41.8,30.27,East,98,0.0,0.0,89,0.00,,,0.00,WeatherTracker,2013-01-24 10:14:00,
2013-01-24 05:19:00,44.8,42.0,30.27,East,98,0.0,0.0,90,0.00,,,0.00,WeatherTracker,2013-01-24 10:19:00,
2013-01-24 05:24:00,44.8,42.0,30.27,East,98,0.0,0.0,90,0.00,,,0.00,WeatherTracker,2013-01-24 10:24:00,
2013-01-24 05:29:00,44.8,42.0,30.27,East,98,0.0,0.0,90,0.00,,,0.00,WeatherTracker,2013-01-24 10:29:00,
2013-01-24 05:34:00,44.8,42.0,30.27,East,98,0.0,0.0,90,0.00,,,0.00,WeatherTracker,2013-01-24 10:34:00,
2013-01-24 05:39:00,44.7,41.9,30.27,East,98,0.0,0.0,90,0.00,,,0.00,WeatherTracker,2013-01-24 10:39:00,
2013-01-24 05:44:00,44.7,41.9,30.28,East,98,0.0,0.0,90,0.00,,,0.00,WeatherTracker,2013-01-24 10:44:00,
2013-01-24 05:49:00,44.6,41.9,30.28,East,98,0.0,0.0,90,0.00,,,0.00,WeatherTracker,2013-01-24 10:49:00,
2013-01-24 05:55:00,44.6,41.9,30.28,East,98,0.0,0.0,90,0.00,,,0.00,WeatherTracker,2013-01-24 10:55:00,
2013-01-24 06:00:00,44.5,41.8,30.28,East,98,0.0,0.0,90,0.00,,,0.00,WeatherTracker,2013-01-24 11:00:00,
2013-01-24 06:05:00,44.5,41.5,30.28,East,98,0.0,0.0,89,0.00,,,0.00,WeatherTracker,2013-01-24 11:05:00,
2013-01-24 06:10:00,44.4,41.7,30.28,East,98,0.0,0.0,90,0.00,,,0.00,WeatherTracker,2013-01-24 11:10:00,
2013-01-24 06:15:00,44.3,41.6,30.29,East,98,0.0,0.0,90,0.00,,,0.00,WeatherTracker,2013-01-24 11:15:00,
2013-01-24 06:20:00,44.2,41.5,30.29,East,98,0.0,0.0,90,0.00,,,0.00,WeatherTracker,2013-01-24 11:20:00,
2013-01-24 06:25:00,44.2,41.5,30.29,East,98,0.0,0.0,90,0.00,,,0.00,WeatherTracker,2013-01-24 11:25:00,
2013-01-24 06:30:00,44.2,41.5,30.29,East,98,0.0,0.0,90,0.00,,,0.00,WeatherTracker,2013-01-24 11:30:00,
2013-01-24 06:35:00,44.1,41.6,30.29,East,98,0.0,0.0,91,0.00,,,0.00,WeatherTracker,2013-01-24 11:35:00,
2013-01-24 06:40:00,44.1,41.6,30.29,East,98,0.0,0.0,91,0.00,,,0.00,WeatherTracker,2013-01-24 11:40:00,
2013-01-24 06:45:00,44.0,41.5,30.29,East,98,0.0,0.0,91,0.00,,,0.00,WeatherTracker,2013-01-24 11:45:00,
2013-01-24 06:50:00,43.9,41.4,30.29,East,98,0.0,0.0,91,0.00,,,0.00,WeatherTracker,2013-01-24 11:50:00,
2013-01-24 06:55:00,43.9,41.4,30.29,East,98,0.0,0.0,91,0.00,,,0.00,WeatherTracker,2013-01-24 11:55:00,
2013-01-24 07:00:00,43.8,41.1,30.29,East,98,0.0,0.0,90,0.00,,,0.00,WeatherTracker,2013-01-24 12:00:00,
2013-01-24 07:05:00,43.8,41.3,30.29,East,98,0.0,0.0,91,0.00,,,0.00,WeatherTracker,2013-01-24 12:05:00,
2013-01-24 07:10:00,43.7,41.2,30.29,East,98,0.0,0.0,91,0.00,,,0.00,WeatherTracker,2013-01-24 12:10:00,
2013-01-24 07:15:00,43.6,40.9,30.29,East,98,0.0,0.0,90,0.00,,,0.00,WeatherTracker,2013-01-24 12:15:00,
2013-01-24 07:20:00,43.6,40.9,30.30,East,98,0.0,0.0,90,0.00,,,0.00,WeatherTracker,2013-01-24 12:20:00,
2013-01-24 07:25:00,43.5,40.8,30.30,East,98,0.0,0.0,90,0.00,,,0.00,WeatherTracker,2013-01-24 12:25:00,
2013-01-24 07:30:00,43.5,40.8,30.30,East,98,0.0,0.0,90,0.00,,,0.00,WeatherTracker,2013-01-24 12:30:00,
2013-01-24 07:35:00,43.5,40.8,30.30,East,98,0.0,0.0,90,0.00,,,0.00,WeatherTracker,2013-01-24 12:35:00,
2013-01-24 07:40:00,43.6,41.1,30.30,East,98,0.0,0.0,91,0.00,,,0.00,WeatherTracker,2013-01-24 12:40:00,
2013-01-24 07:45:00,43.7,41.2,30.30,East,98,0.0,0.0,91,0.00,,,0.00,WeatherTracker,2013-01-24 12:45:00,
2013-01-24 07:50:00,43.8,41.3,30.30,East,98,0.0,0.0,91,0.00,,,0.00,WeatherTracker,2013-01-24 12:50:00,
2013-01-24 07:55:00,44.0,41.5,30.30,East,98,0.0,0.0,91,0.00,,,0.00,WeatherTracker,2013-01-24 12:55:00,
2013-01-24 08:01:00,44.2,42.0,30.30,East,98,0.0,0.0,92,0.00,,,0.00,WeatherTracker,2013-01-24 13:01:00,
2013-01-24 08:06:00,44.5,42.3,30.30,East,98,0.0,0.0,92,0.00,,,0.00,WeatherTracker,2013-01-24 13:06:00,
2013-01-24 08:11:00,44.9,42.7,30.30,East,98,0.0,0.0,92,0.00,,,0.00,WeatherTracker,2013-01-24 13:11:00,
2013-01-24 08:16:00,45.4,43.5,30.30,East,98,0.0,0.0,93,0.00,,,0.00,WeatherTracker,2013-01-24 13:16:00,
2013-01-24 08:21:00,45.9,44.0,30.31,East,98,0.0,0.0,93,0.00,,,0.00,WeatherTracker,2013-01-24 13:21:00,
2013-01-24 08:26:00,46.4,44.5,30.30,East,98,0.0,0.0,93,0.00,,,0.00,WeatherTracker,2013-01-24 13:26:00,
2013-01-24 08:31:00,47.0,45.1,30.31,East,98,0.0,0.0,93,0.00,,,0.00,WeatherTracker,2013-01-24 13:31:00,
2013-01-24 08:36:00,47.8,45.3,30.31,East,92,1.0,0.0,91,0.00,,,0.00,WeatherTracker,2013-01-24 13:36:00,
2013-01-24 08:41:00,48.7,45.9,30.31,East,92,1.0,0.0,90,0.00,,,0.00,WeatherTracker,2013-01-24 13:41:00,
2013-01-24 08:46:00,49.6,45.6,30.32,NNE,16,0.0,0.0,86,0.00,,,0.00,WeatherTracker,2013-01-24 13:46:00,
2013-01-24 08:51:00,50.7,45.4,30.32,North,5,0.0,0.0,82,0.00,,,0.00,WeatherTracker,2013-01-24 13:51:00,
2013-01-24 08:56:00,51.5,46.2,30.32,NNE,20,0.0,0.0,82,0.00,,,0.00,WeatherTracker,2013-01-24 13:56:00,
2013-01-24 09:01:00,52.4,45.7,30.32,North,5,4.0,0.0,78,0.00,,,0.00,WeatherTracker,2013-01-24 14:01:00,
2013-01-24 09:06:00,53.4,46.4,30.32,ENE,67,1.0,0.0,77,0.00,,,0.00,WeatherTracker,2013-01-24 14:06:00,
2013-01-24 09:11:00,54.2,46.1,30.32,NNE,21,0.0,0.0,74,0.00,,,0.00,WeatherTracker,2013-01-24 14:11:00,
2013-01-24 09:16:00,55.0,46.9,30.32,ENE,66,0.0,0.0,74,0.00,,,0.00,WeatherTracker,2013-01-24 14:16:00,
2013-01-24 09:21:00,55.6,47.1,30.33,NNW,336,0.0,0.0,73,0.00,,,0.00,WeatherTracker,2013-01-24 14:21:00,
2013-01-24 09:26:00,56.1,46.8,30.33,NW,319,5.0,0.0,71,0.00,,,0.00,WeatherTracker,2013-01-24 14:26:00,
2013-01-24 09:31:00,56.6,46.5,30.33,NNE,14,0.0,0.0,69,0.00,,,0.00,WeatherTracker,2013-01-24 14:31:00,
2013-01-24 09:36:00,57.1,47.4,30.33,NNW,327,0.0,0.0,70,0.00,,,0.00,WeatherTracker,2013-01-24 14:36:00,
2013-01-24 09:41:00,57.7,46.4,30.33,NNE,29,1.0,0.0,66,0.00,,,0.00,WeatherTracker,2013-01-24 14:41:00,
2013-01-24 09:46:00,58.2,46.1,30.33,North,355,3.0,0.0,64,0.00,,,0.00,WeatherTracker,2013-01-24 14:46:00,
2013-01-24 09:51:00,58.7,47.0,30.34,North,360,1.0,0.0,65,0.00,,,0.00,WeatherTracker,2013-01-24 14:51:00,
2013-01-24 09:56:00,59.2,47.0,30.34,NE,51,2.0,0.0,64,0.00,,,0.00,WeatherTracker,2013-01-24 14:56:00,
2013-01-24 10:01:00,59.8,47.2,30.34,NNW,336,2.0,0.0,63,0.00,,,0.00,WeatherTracker,2013-01-24 15:01:00,
2013-01-24 10:07:00,60.4,46.4,30.34,NNW,329,5.0,0.0,60,0.00,,,0.00,WeatherTracker,2013-01-24 15:07:00,
2013-01-24 10:12:00,60.8,46.4,30.34,North,11,5.0,0.0,59,0.00,,,0.00,WeatherTracker,2013-01-24 15:12:00,
2013-01-24 10:17:00,61.3,47.3,30.34,NNW,328,4.0,0.0,60,0.00,,,0.00,WeatherTracker,2013-01-24 15:17:00,
2013-01-24 10:22:00,61.8,46.9,30.34,NNE,21,1.0,0.0,58,0.00,,,0.00,WeatherTracker,2013-01-24 15:22:00,
2013-01-24 10:27:00,62.3,46.9,30.34,ENE,61,4.0,0.0,57,0.00,,,0.00,WeatherTracker,2013-01-24 15:27:00,
2013-01-24 10:32:00,62.9,47.4,30.34,NNE,15,0.0,0.0,57,0.00,,,0.00,WeatherTracker,2013-01-24 15:32:00,
2013-01-24 10:37:00,63.5,47.5,30.34,NW,319,6.0,0.0,56,0.00,,,0.00,WeatherTracker,2013-01-24 15:37:00,
2013-01-24 10:42:00,64.1,47.1,30.34,North,360,0.0,0.0,54,0.00,,,0.00,WeatherTracker,2013-01-24 15:42:00,
2013-01-24 10:47:00,64.6,46.6,30.34,NW,318,4.0,0.0,52,0.00,,,0.00,WeatherTracker,2013-01-24 15:47:00,
2013-01-24 10:52:00,65.1,47.0,30.34,North,5,4.0,0.0,52,0.00,,,0.00,WeatherTracker,2013-01-24 15:52:00,
2013-01-24 10:57:00,65.6,48.0,30.34,NNW,344,5.0,0.0,53,0.00,,,0.00,WeatherTracker,2013-01-24 15:57:00,
2013-01-24 11:02:00,66.1,46.9,30.34,NNW,346,2.0,0.0,50,0.00,,,0.00,WeatherTracker,2013-01-24 16:02:00,
2013-01-24 11:07:00,66.5,47.3,30.34,NW,307,6.0,0.0,50,0.00,,,0.00,WeatherTracker,2013-01-24 16:07:00,
2013-01-24 11:12:00,66.8,47.0,30.33,ENE,58,4.0,0.0,49,0.00,,,0.00,WeatherTracker,2013-01-24 16:12:00,
2013-01-24 11:17:00,67.1,47.3,30.33,NNW,345,2.0,0.0,49,0.00,,,0.00,WeatherTracker,2013-01-24 16:17:00,
2013-01-24 11:22:00,67.5,47.1,30.33,North,11,2.0,0.0,48,0.00,,,0.00,WeatherTracker,2013-01-24 16:22:00,
2013-01-24 11:27:00,67.9,47.5,30.33,North,5,1.0,0.0,48,0.00,,,0.00,WeatherTracker,2013-01-24 16:27:00,
2013-01-24 11:32:00,68.0,46.4,30.33,NW,323,4.0,0.0,46,0.00,,,0.00,WeatherTracker,2013-01-24 16:32:00,
2013-01-24 11:37:00,68.2,46.6,30.32,NW,319,2.0,0.0,46,0.00,,,0.00,WeatherTracker,2013-01-24 16:37:00,
2013-01-24 11:42:00,68.6,45.8,30.32,NW,317,5.0,0.0,44,0.00,,,0.00,WeatherTracker,2013-01-24 16:42:00,
2013-01-24 11:47:00,69.0,47.3,30.32,North,355,5.0,0.0,46,0.00,,,0.00,WeatherTracker,2013-01-24 16:47:00,
2013-01-24 11:52:00,69.2,46.3,30.32,North,350,2.0,0.0,44,0.00,,,0.00,WeatherTracker,2013-01-24 16:52:00,
2013-01-24 11:57:00,69.3,47.0,30.31,NW,321,1.0,0.0,45,0.00,,,0.00,WeatherTracker,2013-01-24 16:57:00,
2013-01-24 12:02:00,69.5,46.6,30.31,NNE,19,1.0,0.0,44,0.00,,,0.00,WeatherTracker,2013-01-24 17:02:00,
2013-01-24 12:07:00,69.9,46.4,30.31,North,355,3.0,0.0,43,0.00,,,0.00,WeatherTracker,2013-01-24 17:07:00,
2013-01-24 12:12:00,70.0,47.7,30.31,West,276,1.0,0.0,45,0.00,,,0.00,WeatherTracker,2013-01-24 17:12:00,
2013-01-24 12:17:00,70.3,47.3,30.30,WNW,286,2.0,0.0,44,0.00,,,0.00,WeatherTracker,2013-01-24 17:17:00,
2013-01-24 12:23:00,70.7,47.1,30.30,North,360,2.0,0.0,43,0.00,,,0.00,WeatherTracker,2013-01-24 17:23:00,
2013-01-24 12:28:00,71.2,47.5,30.30,NW,316,2.0,0.0,43,0.00,,,0.00,WeatherTracker,2013-01-24 17:28:00,
2013-01-24 12:33:00,71.1,48.1,30.30,West,259,0.0,0.0,44,0.00,,,0.00,WeatherTracker,2013-01-24 17:33:00,
2013-01-24 12:38:00,71.3,47.6,30.30,NNW,332,5.0,0.0,43,0.00,,,0.00,WeatherTracker,2013-01-24 17:38:00,
2013-01-24 12:43:00,71.5,48.4,30.29,NNW,337,5.0,0.0,44,0.00,,,0.00,WeatherTracker,2013-01-24 17:43:00,
2013-01-24 12:48:00,71.6,48.5,30.29,NNW,329,9.0,0.0,44,0.00,,,0.00,WeatherTracker,2013-01-24 17:48:00,
2013-01-24 12:53:00,71.5,49.0,30.29,NNW,336,7.0,0.0,45,0.00,,,0.00,WeatherTracker,2013-01-24 17:53:00,
2013-01-24 12:58:00,71.3,48.2,30.29,WNW,301,6.0,0.0,44,0.00,,,0.00,WeatherTracker,2013-01-24 17:58:00,
2013-01-24 13:03:00,71.4,48.9,30.28,NW,310,7.0,0.0,45,0.00,,,0.00,WeatherTracker,2013-01-24 18:03:00,
2013-01-24 13:08:00,71.7,48.6,30.28,North,9,5.0,0.0,44,0.00,,,0.00,WeatherTracker,2013-01-24 18:08:00,
2013-01-24 13:13:00,71.3,48.2,30.27,WNW,303,6.0,0.0,44,0.00,,,0.00,WeatherTracker,2013-01-24 18:13:00,
2013-01-24 13:18:00,70.9,47.9,30.27,NNW,336,5.0,0.0,44,0.00,,,0.00,WeatherTracker,2013-01-24 18:18:00,
2013-01-24 13:23:00,71.1,49.3,30.27,NNE,24,5.0,0.0,46,0.00,,,0.00,WeatherTracker,2013-01-24 18:23:00,
2013-01-24 13:28:00,71.4,48.3,30.27,North,5,5.0,0.0,44,0.00,,,0.00,WeatherTracker,2013-01-24 18:28:00,
2013-01-24 13:33:00,71.7,48.0,30.26,NNW,348,6.0,0.0,43,0.00,,,0.00,WeatherTracker,2013-01-24 18:33:00,
2013-01-24 13:38:00,71.9,47.5,30.26,North,355,8.0,0.0,42,0.00,,,0.00,WeatherTracker,2013-01-24 18:38:00,
2013-01-24 13:43:00,71.7,47.4,30.26,ESE,107,2.0,0.0,42,0.00,,,0.00,WeatherTracker,2013-01-24 18:43:00,
2013-01-24 13:48:00,71.8,48.1,30.25,NW,324,6.0,0.0,43,0.00,,,0.00,WeatherTracker,2013-01-24 18:48:00,
2013-01-24 13:53:00,71.7,47.4,30.25,North,360,4.0,0.0,42,0.00,,,0.00,WeatherTracker,2013-01-24 18:53:00,
2013-01-24 13:58:00,71.5,47.8,30.25,NW,317,6.0,0.0,43,0.00,,,0.00,WeatherTracker,2013-01-24 18:58:00,
2013-01-24 14:03:00,71.1,48.1,30.25,WNW,294,9.0,0.0,44,0.00,,,0.00,WeatherTracker,2013-01-24 19:03:00,
2013-01-24 14:08:00,71.2,47.5,30.25,NNW,333,4.0,0.0,43,0.00,,,0.00,WeatherTracker,2013-01-24 19:08:00,
2013-01-24 14:13:00,71.3,48.2,30.25,NNW,331,3.0,0.0,44,0.00,,,0.00,WeatherTracker,2013-01-24 19:13:00,
2013-01-24 14:18:00,71.6,48.5,30.25,West,281,6.0,0.0,44,0.00,,,0.00,WeatherTracker,2013-01-24 19:18:00,
2013-01-24 14:24:00,71.7,47.4,30.25,NW,306,6.0,0.0,42,0.00,,,0.00,WeatherTracker,2013-01-24 19:24:00,
2013-01-24 14:29:00,71.5,47.2,30.25,North,11,5.0,0.0,42,0.00,,,0.00,WeatherTracker,2013-01-24 19:29:00,
2013-01-24 14:34:00,71.4,47.1,30.25,North,5,9.0,0.0,42,0.00,,,0.00,WeatherTracker,2013-01-24 19:34:00,
2013-01-24 14:39:00,71.2,48.8,30.25,West,277,9.0,0.0,45,0.00,,,0.00,WeatherTracker,2013-01-24 19:39:00,
2013-01-24 14:44:00,71.1,48.1,30.24,NW,306,5.0,0.0,44,0.00,,,0.00,WeatherTracker,2013-01-24 19:44:00,
2013-01-24 14:49:00,71.1,47.5,30.24,NNW,327,4.0,0.0,43,0.00,,,0.00,WeatherTracker,2013-01-24 19:49:00,
2013-01-24 14:54:00,71.0,49.2,30.24,NW,309,6.0,0.0,46,0.00,,,0.00,WeatherTracker,2013-01-24 19:54:00,
2013-01-24 14:59:00,70.9,49.7,30.24,NW,306,4.0,0.0,47,0.00,,,0.00,WeatherTracker,2013-01-24 19:59:00,
2013-01-24 15:04:00,70.7,48.3,30.24,NNW,347,6.0,0.0,45,0.00,,,0.00,WeatherTracker,2013-01-24 20:04:00,
2013-01-24 15:09:00,70.5,48.1,30.25,WNW,296,3.0,0.0,45,0.00,,,0.00,WeatherTracker,2013-01-24 20:09:00,
2013-01-24 15:14:00,70.5,48.7,30.25,NNW,330,4.0,0.0,46,0.00,,,0.00,WeatherTracker,2013-01-24 20:14:00,
2013-01-24 15:19:00,70.4,49.2,30.25,WNW,298,8.0,0.0,47,0.00,,,0.00,WeatherTracker,2013-01-24 20:19:00,
2013-01-24 15:24:00,70.3,48.5,30.25,NW,318,9.0,0.0,46,0.00,,,0.00,WeatherTracker,2013-01-24 20:24:00,
2013-01-24 15:29:00,70.1,48.3,30.25,NNW,329,4.0,0.0,46,0.00,,,0.00,WeatherTracker,2013-01-24 20:29:00,
2013-01-24 15:34:00,70.1,48.9,30.25,WNW,282,3.0,0.0,47,0.00,,,0.00,WeatherTracker,2013-01-24 20:34:00,
2013-01-24 15:39:00,70.1,49.5,30.25,NW,315,6.0,0.0,48,0.00,,,0.00,WeatherTracker,2013-01-24 20:39:00,
2013-01-24 15:44:00,70.1,50.0,30.25,NW,308,7.0,0.0,49,0.00,,,0.00,WeatherTracker,2013-01-24 20:44:00,
2013-01-24 15:49:00,69.8,49.2,30.25,WSW,257,11.0,0.0,48,0.00,,,0.00,WeatherTracker,2013-01-24 20:49:00,
2013-01-24 15:54:00,69.7,49.7,30.25,WNW,285,8.0,0.0,49,0.00,,,0.00,WeatherTracker,2013-01-24 20:54:00,
2013-01-24 15:59:00,69.7,51.3,30.25,West,267,9.0,0.0,52,0.00,,,0.00,WeatherTracker,2013-01-24 20:59:00,
2013-01-24 16:04:00,69.5,50.6,30.25,NW,306,5.0,0.0,51,0.00,,,0.00,WeatherTracker,2013-01-24 21:04:00,
2013-01-24 16:09:00,69.3,51.4,30.25,WNW,295,3.0,0.0,53,0.00,,,0.00,WeatherTracker,2013-01-24 21:09:00,
2013-01-24 16:14:00,69.3,51.4,30.25,WNW,303,12.0,0.0,53,0.00,,,0.00,WeatherTracker,2013-01-24 21:14:00,
2013-01-24 16:19:00,69.1,51.2,30.25,NW,304,7.0,0.0,53,0.00,,,0.00,WeatherTracker,2013-01-24 21:19:00,
2013-01-24 16:24:00,68.9,51.6,30.25,NW,323,5.0,0.0,54,0.00,,,0.00,WeatherTracker,2013-01-24 21:24:00,
2013-01-24 16:29:00,68.8,51.5,30.25,NW,312,4.0,0.0,54,0.00,,,0.00,WeatherTracker,2013-01-24 21:29:00,
2013-01-24 16:34:00,68.6,51.8,30.25,NW,321,8.0,0.0,55,0.00,,,0.00,WeatherTracker,2013-01-24 21:34:00,
2013-01-24 16:39:00,68.4,51.6,30.25,WNW,294,5.0,0.0,55,0.00,,,0.00,WeatherTracker,2013-01-24 21:39:00,
2013-01-24 16:44:00,68.2,50.9,30.25,WNW,298,5.0,0.0,54,0.00,,,0.00,WeatherTracker,2013-01-24 21:44:00,
2013-01-24 16:49:00,68.1,50.8,30.25,NNW,346,5.0,0.0,54,0.00,,,0.00,WeatherTracker,2013-01-24 21:49:00,
2013-01-24 16:54:00,67.8,51.0,30.25,NW,306,6.0,0.0,55,0.00,,,0.00,WeatherTracker,2013-01-24 21:54:00,
2013-01-24 16:59:00,67.5,51.2,30.25,NNW,330,4.0,0.0,56,0.00,,,0.00,WeatherTracker,2013-01-24 21:59:00,
2013-01-24 17:04:00,67.2,51.4,30.25,WNW,285,5.0,0.0,57,0.00,,,0.00,WeatherTracker,2013-01-24 22:04:00,
2013-01-24 17:09:00,67.1,52.3,30.25,North,360,5.0,0.0,59,0.00,,,0.00,WeatherTracker,2013-01-24 22:09:00,
2013-01-24 17:15:00,66.9,52.1,30.25,NW,319,6.0,0.0,59,0.00,,,0.00,WeatherTracker,2013-01-24 22:15:00,
2013-01-24 17:20:00,66.7,52.4,30.25,WNW,294,4.0,0.0,60,0.00,,,0.00,WeatherTracker,2013-01-24 22:20:00,
2013-01-24 17:25:00,66.4,52.5,30.25,WNW,302,4.0,0.0,61,0.00,,,0.00,WeatherTracker,2013-01-24 22:25:00,
2013-01-24 17:30:00,66.2,52.8,30.25,WNW,300,4.0,0.0,62,0.00,,,0.00,WeatherTracker,2013-01-24 22:30:00,
2013-01-24 17:35:00,65.9,52.5,30.25,NNW,340,1.0,0.0,62,0.00,,,0.00,WeatherTracker,2013-01-24 22:35:00,
2013-01-24 17:40:00,65.8,52.8,30.25,West,280,4.0,0.0,63,0.00,,,0.00,WeatherTracker,2013-01-24 22:40:00,
2013-01-24 17:45:00,65.6,53.1,30.25,NNW,338,5.0,0.0,64,0.00,,,0.00,WeatherTracker,2013-01-24 22:45:00,
2013-01-24 17:50:00,65.3,53.2,30.25,NNE,12,5.0,0.0,65,0.00,,,0.00,WeatherTracker,2013-01-24 22:50:00,
2013-01-24 17:55:00,65.2,53.1,30.25,NW,324,1.0,0.0,65,0.00,,,0.00,WeatherTracker,2013-01-24 22:55:00,
2013-01-24 18:00:00,65.0,53.4,30.25,North,355,1.0,0.0,66,0.00,,,0.00,WeatherTracker,2013-01-24 23:00:00,
2013-01-24 18:05:00,64.7,53.5,30.25,NNW,338,2.0,0.0,67,0.00,,,0.00,WeatherTracker,2013-01-24 23:05:00,
2013-01-24 18:10:00,64.5,53.7,30.25,NNW,342,0.0,0.0,68,0.00,,,0.00,WeatherTracker,2013-01-24 23:10:00,
2013-01-24 18:15:00,64.2,53.4,30.25,NNW,333,1.0,0.0,68,0.00,,,0.00,WeatherTracker,2013-01-24 23:15:00,
2013-01-24 18:20:00,63.9,53.5,30.25,NW,309,1.0,0.0,69,0.00,,,0.00,WeatherTracker,2013-01-24 23:20:00,
2013-01-24 18:25:00,63.7,53.7,30.25,WNW,302,1.0,0.0,70,0.00,,,0.00,WeatherTracker,2013-01-24 23:25:00,
2013-01-24 18:30:00,63.4,53.8,30.26,NNW,337,2.0,0.0,71,0.00,,,0.00,WeatherTracker,2013-01-24 23:30:00,
2013-01-24 18:35:00,63.1,53.9,30.25,NW,313,1.0,0.0,72,0.00,,,0.00,WeatherTracker,2013-01-24 23:35:00,
2013-01-24 18:40:00,62.9,53.7,30.26,NW,313,0.0,0.0,72,0.00,,,0.00,WeatherTracker,2013-01-24 23:40:00,
2013-01-24 18:45:00,62.6,53.8,30.26,NNW,331,0.0,0.0,73,0.00,,,0.00,WeatherTracker,2013-01-24 23:45:00,
2013-01-24 18:50:00,62.4,53.6,30.26,NNW,331,0.0,0.0,73,0.00,,,0.00,WeatherTracker,2013-01-24 23:50:00,
2013-01-24 18:55:00,62.2,53.8,30.26,NNW,331,0.0,0.0,74,0.00,,,0.00,WeatherTracker,2013-01-24 23:55:00,
2013-01-24 19:00:00,62.0,53.6,30.26,NNW,331,0.0,0.0,74,0.00,,,0.00,WeatherTracker,2013-01-25 00:00:00,
2013-01-24 19:05:00,61.8,53.8,30.26,NNW,331,1.0,0.0,75,0.00,,,0.00,WeatherTracker,2013-01-25 00:05:00,
2013-01-24 19:10:00,61.6,53.6,30.26,NNW,331,0.0,0.0,75,0.00,,,0.00,WeatherTracker,2013-01-25 00:10:00,
2013-01-24 19:15:00,61.3,53.7,30.26,NNW,331,0.0,0.0,76,0.00,,,0.00,WeatherTracker,2013-01-25 00:15:00,
2013-01-24 19:21:00,61.1,53.8,30.27,NNW,331,0.0,0.0,77,0.00,,,0.00,WeatherTracker,2013-01-25 00:21:00,
2013-01-24 19:26:00,60.9,53.6,30.27,NNW,331,0.0,0.0,77,0.00,,,0.00,WeatherTracker,2013-01-25 00:26:00,
2013-01-24 19:31:00,60.7,53.8,30.27,NNW,331,0.0,0.0,78,0.00,,,0.00,WeatherTracker,2013-01-25 00:31:00,
2013-01-24 19:36:00,60.5,53.6,30.27,NNW,332,1.0,0.0,78,0.00,,,0.00,WeatherTracker,2013-01-25 00:36:00,
2013-01-24 19:41:00,60.4,53.5,30.27,NNW,333,2.0,0.0,78,0.00,,,0.00,WeatherTracker,2013-01-25 00:41:00,
2013-01-24 19:46:00,60.3,53.4,30.27,NNW,329,0.0,0.0,78,0.00,,,0.00,WeatherTracker,2013-01-25 00:46:00,
2013-01-24 19:51:00,60.2,53.7,30.27,NNW,329,1.0,0.0,79,0.00,,,0.00,WeatherTracker,2013-01-25 00:51:00,
2013-01-24 19:56:00,60.2,53.7,30.27,NNW,329,1.0,0.0,79,0.00,,,0.00,WeatherTracker,2013-01-25 00:56:00,
2013-01-24 20:01:00,60.2,53.7,30.27,NNW,347,1.0,0.0,79,0.00,,,0.00,WeatherTracker,2013-01-25 01:01:00,
2013-01-24 20:06:00,60.2,53.7,30.27,NW,318,0.0,0.0,79,0.00,,,0.00,WeatherTracker,2013-01-25 01:06:00,
2013-01-24 20:11:00,60.1,53.6,30.27,NW,325,0.0,0.0,79,0.00,,,0.00,WeatherTracker,2013-01-25 01:11:00,
2013-01-24 20:16:00,60.1,53.9,30.28,NNW,327,0.0,0.0,80,0.00,,,0.00,WeatherTracker,2013-01-25 01:16:00,
2013-01-24 20:21:00,60.0,53.8,30.27,NW,325,1.0,0.0,80,0.00,,,0.00,WeatherTracker,2013-01-25 01:21:00,
2013-01-24 20:26:00,59.9,53.7,30.27,NW,325,0.0,0.0,80,0.00,,,0.00,WeatherTracker,2013-01-25 01:26:00,
2013-01-24 20:31:00,59.8,53.6,30.28,NNW,337,0.0,0.0,80,0.00,,,0.00,WeatherTracker,2013-01-25 01:31:00,
2013-01-24 20:36:00,59.6,53.4,30.28,NNW,337,0.0,0.0,80,0.00,,,0.00,WeatherTracker,2013-01-25 01:36:00,
2013-01-24 20:41:00,59.5,53.3,30.28,NNW,337,0.0,0.0,80,0.00,,,0.00,WeatherTracker,2013-01-25 01:41:00,
2013-01-24 20:46:00,59.3,53.5,30.28,NNW,337,0.0,0.0,81,0.00,,,0.00,WeatherTracker,2013-01-25 01:46:00,
2013-01-24 20:51:00,59.1,53.3,30.28,NNW,334,0.0,0.0,81,0.00,,,0.00,WeatherTracker,2013-01-25 01:51:00,
2013-01-24 20:56:00,59.0,53.5,30.28,NNW,334,0.0,0.0,82,0.00,,,0.00,WeatherTracker,2013-01-25 01:56:00,
2013-01-24 21:01:00,58.8,53.3,30.28,NNW,334,0.0,0.0,82,0.00,,,0.00,WeatherTracker,2013-01-25 02:01:00,
2013-01-24 21:06:00,58.6,53.1,30.28,NNW,334,0.0,0.0,82,0.00,,,0.00,WeatherTracker,2013-01-25 02:06:00,
2013-01-24 21:11:00,58.5,53.0,30.28,NNW,334,0.0,0.0,82,0.00,,,0.00,WeatherTracker,2013-01-25 02:11:00,
2013-01-24 21:16:00,58.3,53.2,30.28,NNW,334,0.0,0.0,83,0.00,,,0.00,WeatherTracker,2013-01-25 02:16:00,
2013-01-24 21:21:00,58.2,53.1,30.28,NNW,334,0.0,0.0,83,0.00,,,0.00,WeatherTracker,2013-01-25 02:21:00,
2013-01-24 21:26:00,58.0,52.9,30.28,NNW,334,0.0,0.0,83,0.00,,,0.00,WeatherTracker,2013-01-25 02:26:00,
2013-01-24 21:32:00,57.9,53.1,30.28,NNW,334,0.0,0.0,84,0.00,,,0.00,WeatherTracker,2013-01-25 02:32:00,
2013-01-24 21:37:00,57.7,52.9,30.28,NNW,334,0.0,0.0,84,0.00,,,0.00,WeatherTracker,2013-01-25 02:37:00,
2013-01-24 21:42:00,57.5,52.7,30.28,NNW,334,0.0,0.0,84,0.00,,,0.00,WeatherTracker,2013-01-25 02:42:00,
2013-01-24 21:47:00,57.3,52.8,30.28,NNW,334,0.0,0.0,85,0.00,,,0.00,WeatherTracker,2013-01-25 02:47:00,
2013-01-24 21:52:00,57.2,53.0,30.28,NNW,334,0.0,0.0,86,0.00,,,0.00,WeatherTracker,2013-01-25 02:52:00,
2013-01-24 21:57:00,57.1,53.0,30.28,NNW,334,2.0,0.0,86,0.00,,,0.00,WeatherTracker,2013-01-25 02:57:00,
2013-01-24 22:02:00,57.0,53.2,30.28,NNW,334,0.0,0.0,87,0.00,,,0.00,WeatherTracker,2013-01-25 03:02:00,
2013-01-24 22:07:00,56.9,53.1,30.28,NNW,334,0.0,0.0,87,0.00,,,0.00,WeatherTracker,2013-01-25 03:07:00,
2013-01-24 22:12:00,56.8,53.0,30.28,NNW,334,0.0,0.0,87,0.00,,,0.00,WeatherTracker,2013-01-25 03:12:00,
2013-01-24 22:17:00,56.7,52.9,30.28,NNW,334,0.0,0.0,87,0.00,,,0.00,WeatherTracker,2013-01-25 03:17:00,
2013-01-24 22:22:00,56.6,52.8,30.28,NNW,334,0.0,0.0,87,0.00,,,0.00,WeatherTracker,2013-01-25 03:22:00,
2013-01-24 22:27:00,56.5,53.0,30.28,NNW,334,0.0,0.0,88,0.00,,,0.00,WeatherTracker,2013-01-25 03:27:00,
2013-01-24 22:32:00,56.4,52.9,30.28,NNW,334,0.0,0.0,88,0.00,,,0.00,WeatherTracker,2013-01-25 03:32:00,
2013-01-24 22:37:00,56.3,52.8,30.28,NNW,334,0.0,0.0,88,0.00,,,0.00,WeatherTracker,2013-01-25 03:37:00,
2013-01-24 22:42:00,56.1,52.6,30.28,NNW,334,0.0,0.0,88,0.00,,,0.00,WeatherTracker,2013-01-25 03:42:00,
2013-01-24 22:47:00,55.9,52.4,30.28,NNW,334,0.0,0.0,88,0.00,,,0.00,WeatherTracker,2013-01-25 03:47:00,
2013-01-24 22:52:00,55.8,52.3,30.28,NNW,334,0.0,0.0,88,0.00,,,0.00,WeatherTracker,2013-01-25 03:52:00,
2013-01-24 22:57:00,55.6,52.1,30.28,NNW,334,0.0,0.0,88,0.00,,,0.00,WeatherTracker,2013-01-25 03:57:00,
2013-01-24 23:02:00,55.5,52.3,30.28,NNW,334,0.0,0.0,89,0.00,,,0.00,WeatherTracker,2013-01-25 04:02:00,
2013-01-24 23:07:00,55.4,52.2,30.28,NNW,334,0.0,0.0,89,0.00,,,0.00,WeatherTracker,2013-01-25 04:07:00,
2013-01-24 23:12:00,55.2,51.7,30.29,NNW,334,0.0,0.0,88,0.00,,,0.00,WeatherTracker,2013-01-25 04:12:00,
2013-01-24 23:17:00,55.0,51.5,30.28,NNW,334,0.0,0.0,88,0.00,,,0.00,WeatherTracker,2013-01-25 04:17:00,
2013-01-24 23:23:00,54.8,51.6,30.28,NNW,334,0.0,0.0,89,0.00,,,0.00,WeatherTracker,2013-01-25 04:23:00,
2013-01-24 23:28:00,54.7,51.5,30.28,NNW,334,0.0,0.0,89,0.00,,,0.00,WeatherTracker,2013-01-25 04:28:00,
2013-01-24 23:33:00,54.5,51.3,30.28,NNW,334,0.0,0.0,89,0.00,,,0.00,WeatherTracker,2013-01-25 04:33:00,
2013-01-24 23:38:00,54.4,51.2,30.28,NNW,334,0.0,0.0,89,0.00,,,0.00,WeatherTracker,2013-01-25 04:38:00,
2013-01-24 23:43:00,54.2,51.0,30.28,NNW,334,0.0,0.0,89,0.00,,,0.00,WeatherTracker,2013-01-25 04:43:00,
2013-01-24 23:48:00,54.1,51.2,30.28,NNW,334,0.0,0.0,90,0.00,,,0.00,WeatherTracker,2013-01-25 04:48:00,
2013-01-24 23:53:00,54.0,51.1,30.28,NNW,334,0.0,0.0,90,0.00,,,0.00,WeatherTracker,2013-01-25 04:53:00,
2013-01-24 23:58:00,53.8,50.6,30.28,NNW,334,0.0,0.0,89,0.00,,,0.00,WeatherTracker,2013-01-25 04:58:00,